TimeEST,TemperatureF,Dew PointF,Humidity,Sea Level PressureIn,VisibilityMPH,Wind Direction,Wind SpeedMPH,Gust SpeedMPH,PrecipitationIn,Events,Conditions,WindDirDegrees,DateUTC
12:53 AM,-2.9,-9.0,75,30.35,10.0,Calm,Calm,-,N/A,,Clear,0,2013-02-10 05:53:00
1:53 AM,-2.9,-8.0,79,30.36,10.0,Calm,Calm,-,N/A,,Clear,0,2013-02-10 06:53:00
2:53 AM,-8.0,-11.0,86,30.38,10.0,Calm,Calm,-,N/A,,Clear,0,2013-02-10 07:53:00
3:53 AM,-9.9,-15.0,78,30.38,10.0,Calm,Calm,-,N/A,,Clear,0,2013-02-10 08:53:00
4:53 AM,-7.1,-13.0,75,30.40,10.0,Calm,Calm,-,N/A,,Clear,0,2013-02-10 09:53:00
5:53 AM,-9.9,-15.0,78,30.43,10.0,Calm,Calm,-,N/A,,Clear,0,2013-02-10 10:53:00
6:04 AM,-11.2,-16.6,77,30.36,2.5,Calm,Calm,-,N/A,,Haze,0,2013-02-10 11:04:00
6:20 AM,-13.0,-18.4,77,30.37,4.0,Calm,Calm,-,N/A,,Haze,0,2013-02-10 11:20:00
6:53 AM,-11.0,-17.0,75,30.46,10.0,Calm,Calm,-,N/A,,Clear,0,2013-02-10 11:53:00
7:53 AM,-9.0,-11.9,87,30.49,10.0,Calm,Calm,-,N/A,,Clear,0,2013-02-10 12:53:00
8:53 AM,-0.9,-5.1,83,30.50,10.0,Calm,Calm,-,N/A,,Clear,0,2013-02-10 13:53:00
9:53 AM,6.1,-2.0,69,30.50,10.0,Calm,Calm,-,N/A,,Clear,0,2013-02-10 14:53:00
10:53 AM,14.0,-0.0,54,30.51,10.0,Calm,Calm,-,N/A,,Clear,0,2013-02-10 15:53:00
11:53 AM,18.0,1.0,48,30.49,10.0,Calm,Calm,-,N/A,,Clear,0,2013-02-10 16:53:00
12:53 PM,25.0,-2.0,31,30.45,10.0,Calm,Calm,-,N/A,,Clear,0,2013-02-10 17:53:00
1:53 PM,26.1,-0.0,32,30.41,10.0,Calm,Calm,-,N/A,,Clear,0,2013-02-10 18:53:00
2:53 PM,30.0,-2.9,24,30.40,10.0,Calm,Calm,-,N/A,,Clear,0,2013-02-10 19:53:00
3:53 PM,21.9,3.0,44,30.41,10.0,Calm,Calm,-,N/A,,Clear,0,2013-02-10 20:53:00
4:53 PM,24.1,5.0,44,30.39,10.0,NNE,3.5,-,N/A,,Partly Cloudy,30,2013-02-10 21:53:00
5:53 PM,10.9,3.9,73,30.40,10.0,Calm,Calm,-,N/A,,Clear,0,2013-02-10 22:53:00
6:53 PM,10.9,3.0,70,30.41,10.0,Calm,Calm,-,N/A,,Clear,0,2013-02-10 23:53:00
7:53 PM,6.1,1.0,80,30.41,10.0,Calm,Calm,-,N/A,,Clear,0,2013-02-11 00:53:00
8:53 PM,7.0,1.0,77,30.39,10.0,Calm,Calm,-,N/A,,Clear,0,2013-02-11 01:53:00
9:53 PM,3.9,-0.9,80,30.38,10.0,Calm,Calm,-,N/A,,Clear,0,2013-02-11 02:53:00
11:53 PM,6.1,1.0,80,30.36,10.0,NNE,4.6,-,N/A,,Clear,30,2013-02-11 04:53:00